Regional Weather Roundup
Issued by NWS Portland, ME

Home | Current Version | Previous Version | Text Only | Print | Product List | Glossary On
Versions: 1 2 3 4 5 6 7 8 9 10 11 12 13 14 15 16 17 18 19 20 21 22 23 24 25 26 27 28 29 30 31 32 33 34 35 36 37 38 39 40 41 42 43 44 45 46 47 48 49 50
000
ASUS41 KGYX 280810
RWRGYX
WEATHER ROUNDUP FOR MAINE AND NEW HAMPSHIRE
NATIONAL WEATHER SERVICE GRAY ME
400 AM EDT TUE JUL 28 2015

MEZ002-005-006-010-012-015-018-020-021-024-026-027-029-280900-
MAINE

CITY           SKY/WX    TMP DP  RH WIND       PRES   REMARKS
PORTLAND       CLOUDY    63  62  97 CALM      29.96F
SANFORD        MOCLDY    61  57  88 CALM      29.97S
BAR HARBOR     CLOUDY    61  61 100 CALM      29.97S VSB 1/2
WISCASSET      CLOUDY    63  62  97 CALM      29.96F FOG
ROCKLAND       CLOUDY    61  59  94 CALM      29.94F VSB 1/2
FRYEBURG       TSTM      67  66  97 W8        29.99S
LEWISTONAUBURN CLOUDY    63  61  94 CALM      29.96F
AUGUSTA        TSTM      65  64  97 NW6       29.97S VSB 3/4
BANGOR         CLOUDY    64  63  96 S5        29.94F
GREENVILLE       N/A     62  61  96 VRB6      29.97F
MILLINOCKET    LGT RAIN  65  63  93 CALM      29.96S
HOULTON        CLOUDY    66  64  93 SE3       29.92F FOG
PRESQUE ISLE   CLOUDY    64  57  77 CALM      29.91R
FRENCHVILLE    MOCLDY    60  59  96 S5        29.91S FOG
CARIBOU        CLOUDY    63  59  87 CALM      29.90F
$$

NHZ002-005-008-009-011-012-014-280900-
NEW HAMPSHIRE

CITY           SKY/WX    TMP DP  RH WIND       PRES   REMARKS
PORTSMOUTH     CLOUDY    67  65  93 SW5       29.95F
ROCHESTER      CLOUDY    66  64  93 CALM      29.96S FOG
MANCHESTER     PTCLDY    69  66  90 CALM      29.96F
CONCORD        MOCLDY    66  65  96 CALM      29.97F
LACONIA        CLOUDY    70  66  88 NW7       29.99R
PLYMOUTH       TSTM      66  66 100 E8G26     30.02R VSB 3/4
BERLIN         CLOUDY    65  62  90 N5        30.01S FOG
WHITEFIELD     LGT RAIN  65  61  87 VRB3      30.02F
JAFFREY        CLEAR     65  64  97 CALM      30.02F FOG
KEENE          MOCLDY    63  57  82 CALM      30.00S
LEBANON        MOCLDY    68  65  90 CALM      30.00R
MT WASHINGTON  SHOWER    48  48 100 W28         N/A  VSB 0
$$

VTZ005-007-008-280900-
VERMONT

CITY           SKY/WX    TMP DP  RH WIND       PRES   REMARKS
ST JOHNSBURY     N/A     65  63  93 MISG      29.98F
MONTPELIER     CLOUDY    64  62  93 VRB5      30.03F
BURLINGTON     MOCLDY    69  66  90 CALM      29.96F
$$

MAZ007-012-024-CTZ003-RIZ002-NYZ038-NYZ072-280900-
SOUTHERN NEW ENGLAND AND NY

CITY           SKY/WX    TMP DP  RH WIND       PRES   REMARKS
BOSTON         PTCLDY    70  68  93 S6        29.98F
WORCESTER      CLEAR     67  65  93 W10       30.01F
NANTUCKET      CLEAR     69  67  93 SW7       30.02F
PROVIDENCE     PTCLDY    69  68  96 S3        30.01S FOG
HARTFORD       CLEAR     70  67  90 S3        29.99F
ALBANY         PTCLDY    70  66  87 CALM      30.00S
NEW YORK CITY  PTCLDY    77  69  76 W7        29.99S
$$

ANZ081-ANZ082-ANZ150-NHZ014-MEZ023>029-280900-
COASTAL MARINE OBSERVATIONS

STATION/POSITION TIME  TEMP    WIND        PRES    WAVE
                       AIR SEA DIR/SP/G            HT/PER
                 (UTC) (F)     (DEG/KT/KT) (MB)    (FT/S)
MOUNT DESERT ROC 0800   63     180/ 13/ 13 1014.7F
MATINICUS ROCK   0700   62     220/ 15/ 16 1014.6F
ISLE OF SHOALS   0700   69     210/ 10/ 11 1014.6F
JEFFREYS LEDGE   0703      64                N/A     3/ 8
CASHES LEDGE BUO 0750   67                 1014.7F   3/ 7
GEORGES BANK BUO 0750   65 64   30/  4/  6 1016.8F   3/ 8
$$

.............KEY..............
   WCI - WIND CHILL
   TC  - TEMPERATURE IN CELSIUS
   VSB - VISIBILITY IN MILES
   HX  - HEAT INDEX
   FAIR- INDICATES FEW OR NO CLOUDS BELOW 12,000 FT, WITH NO
         SIGNIFICANT WEATHER AND/OR OBSTRUCTIONS TO VISIBILITY.




USA.gov is the U.S. government's official web portal to all federal, state and local government web resources and services.